Regional Weather Roundup
Issued by NWS

Home | Current Version | Previous Version | Graphics & Text | Print | Product List | Glossary On
Versions: 1 2 3 4 5 6 7 8 9 10 11 12 13 14 15 16 17 18 19 20 21 22 23 24 25 26 27 28 29 30 31 32 33 34 35 36 37 38 39 40 41 42 43 44 45 46 47 48 49 50
795
ASUS45 KCYS 290510
RWRWY

WYOMING REGIONAL WEATHER ROUNDUP
NATIONAL WEATHER SERVICE CHEYENNE WY
1100 PM MDT WED SEP 28 2016

NOTE:  "FAIR" INDICATES FEW OR NO CLOUDS BELOW 12,000 FEET
WITH NO SIGNIFICANT WEATHER AND/OR OBSTRUCTIONS TO VISIBILITY.

WYZ001-290600-
YELLOWSTONE NATIONAL PARK

CITY           SKY/WX    TMP DP  RH WIND       PRES   REMARKS
LK YELLOWSTONE   N/A     39  34  82 CALM      30.42R
W YELLOWSTONE  NOT AVBL

$$
WYZ002>013-054>058-071-098>099-290600-
NORTHERN WYOMING

CITY           SKY/WX    TMP DP  RH WIND       PRES   REMARKS
JACKSON        FAIR      48  39  71 N8        30.31R
CODY           FAIR      57  43  58 SW5       30.25R
GREYBULL       FAIR      64  42  44 SW3       30.18S
WORLAND        FAIR      55  42  61 SW7       30.20R
SHERIDAN       FAIR      65  37  35 S12       30.20S
BUFFALO        FAIR      65  37  35 S18       30.31R
GILLETTE       FAIR      59  46  62 S14       30.29S
HULETT         FAIR      63  43  48 CALM      30.32R
NEWCASTLE      FAIR      63  37  39 E15       30.33S

$$
WYZ014>020-022>026-101>103-290600-
CENTRAL WYOMING

CITY           SKY/WX    TMP DP  RH WIND       PRES   REMARKS
BIG PINEY      FAIR      43  32  65 NE3       30.36S
PINEDALE       MOCLDY    41  32  70 NW6       30.38S
DUBOIS         FAIR      48  36  61 NW5       30.40S
LANDER         FAIR      59  38  45 SW10      30.28S
RIVERTON       FAIR      64  38  38 S5        30.29S
CASPER         FAIR      52  38  58 CALM      30.30S
DOUGLAS        FAIR      53  39  59 E10       30.34S

$$
WYZ021-027>030-104>119-290600-
SOUTHERN WYOMING

CITY           SKY/WX    TMP DP  RH WIND       PRES   REMARKS
EVANSTON       CLOUDY    56  41  57 W16       30.34S
FORT BRIDGER   CLOUDY    62  35  36 SW9       30.36S
ROCK SPRINGS   FAIR      61  34  36 E3        30.33R
DIXON          FAIR      57  33  39 CALM      30.35F
RAWLINS        FAIR      56  34  43 NE12      30.36R
SARATOGA       FAIR      55  32  41 SE6       30.38R
LARAMIE        FAIR      56  34  43 SE16G28   30.43F
CHEYENNE       FAIR      57  34  41 SE10      30.43R
TORRINGTON     FAIR      56  41  57 E12       30.32R
PINE BLUFFS    FAIR      59  34  38 SE15G22   30.39S

$$




USA.gov is the U.S. government's official web portal to all federal, state and local government web resources and services.